PAL1803 RPLL-RPMD

Flight info

Callsign PAL1803
Flight time N/A
Altitude 35000
Route IPATA2R IPATA B462 MASBA W9A BN W9 RIMAR RIMAR2R
Aircraft B77W/H-SDE1E2E3FGHIJ2J3J4J5M1RWXY/LB1D1

Departure

Time 2026-05-07 01:23
Airport Ninoy Aquino International Airport (RPLL)

Arrival

Time N/A
Airport Francisco Bangoy International Airport (RPMD)
Time Latitude Longitude Altitude Speed Heading
2026-05-07 01:05 14.50502 121.00727 63 ft 0 kts 277°
2026-05-07 01:13 14.50499 121.00746 65 ft 4 kts 277°
2026-05-07 01:13 14.50497 121.00768 65 ft 4 kts 277°
2026-05-07 01:14 14.50494 121.00794 63 ft 4 kts 260°
2026-05-07 01:14 14.50504 121.00814 63 ft 4 kts 194°
2026-05-07 01:14 14.50528 121.00812 65 ft 4 kts 157°
2026-05-07 01:14 14.50552 121.00800 63 ft 2 kts 150°
2026-05-07 01:15 14.50554 121.00799 63 ft 0 kts 150°
2026-05-07 01:17 14.50553 121.00799 63 ft 0 kts 150°
2026-05-07 01:18 14.50548 121.00802 63 ft 1 kts 150°
2026-05-07 01:18 14.50538 121.00808 63 ft 3 kts 149°
2026-05-07 01:18 14.50499 121.00824 63 ft 9 kts 166°
2026-05-07 01:18 14.50438 121.00822 63 ft 9 kts 194°
2026-05-07 01:19 14.50380 121.00793 65 ft 9 kts 224°
2026-05-07 01:19 14.50344 121.00736 64 ft 10 kts 239°
2026-05-07 01:19 14.50310 121.00675 62 ft 10 kts 240°
2026-05-07 01:19 14.50273 121.00608 64 ft 11 kts 240°
2026-05-07 01:20 14.50234 121.00537 65 ft 12 kts 240°
2026-05-07 01:20 14.50193 121.00464 62 ft 12 kts 240°
2026-05-07 01:20 14.50152 121.00391 62 ft 12 kts 240°
2026-05-07 01:20 14.50111 121.00318 65 ft 12 kts 240°
2026-05-07 01:21 14.50070 121.00245 63 ft 12 kts 240°
2026-05-07 01:21 14.50029 121.00171 63 ft 12 kts 240°
2026-05-07 01:21 14.49989 121.00098 65 ft 12 kts 240°
2026-05-07 01:21 14.49948 121.00025 68 ft 12 kts 240°
2026-05-07 01:22 14.49895 120.99970 67 ft 12 kts 191°
2026-05-07 01:22 14.49824 121.00002 68 ft 12 kts 129°
2026-05-07 01:22 14.49827 121.00082 70 ft 12 kts 61°
2026-05-07 01:22 14.49912 121.00236 64 ft 47 kts 60°
2026-05-07 01:23 14.50214 121.00778 63 ft 124 kts 60°
2026-05-07 01:23 14.50749 121.01746 119 ft 177 kts 59°
2026-05-07 01:23 14.51396 121.02852 710 ft 182 kts 57°
2026-05-07 01:23 14.52083 121.03954 1430 ft 185 kts 58°
2026-05-07 01:24 14.52712 121.05115 2218 ft 185 kts 60°
2026-05-07 01:24 14.53311 121.06246 2996 ft 181 kts 61°
2026-05-07 01:24 14.53927 121.07389 3675 ft 185 kts 62°
2026-05-07 01:24 14.54603 121.08634 3939 ft 212 kts 62°
2026-05-07 01:25 14.55381 121.10051 4194 ft 240 kts 61°
2026-05-07 01:25 14.56237 121.11594 4797 ft 253 kts 62°
2026-05-07 01:25 14.57078 121.13204 5439 ft 262 kts 70°
2026-05-07 01:25 14.57429 121.15053 6052 ft 268 kts 85°
2026-05-07 01:26 14.57621 121.17003 6791 ft 273 kts 83°
2026-05-07 01:26 14.57848 121.18953 7664 ft 274 kts 83°
2026-05-07 01:26 14.58079 121.20922 8486 ft 278 kts 83°
2026-05-07 01:26 14.58308 121.22893 9285 ft 282 kts 83°
2026-05-07 01:27 14.58370 121.24923 9951 ft 286 kts 101°
2026-05-07 01:27 14.57595 121.26860 10357 ft 306 kts 124°
2026-05-07 01:27 14.56009 121.28445 10516 ft 331 kts 141°
2026-05-07 01:27 14.54090 121.29922 10765 ft 354 kts 142°
2026-05-07 01:28 14.52053 121.31448 11361 ft 366 kts 143°
2026-05-07 01:28 14.49965 121.33009 12175 ft 372 kts 142°
2026-05-07 01:28 14.47891 121.34569 13661 ft 376 kts 143°
2026-05-07 01:28 14.45753 121.36190 13874 ft 382 kts 142°
2026-05-07 01:29 14.43612 121.37822 14780 ft 384 kts 142°
2026-05-07 01:29 14.41438 121.39485 15492 ft 391 kts 142°
2026-05-07 01:29 14.39234 121.41171 16251 ft 396 kts 142°
2026-05-07 01:29 14.37038 121.42853 17037 ft 400 kts 142°
2026-05-07 01:30 14.34789 121.44576 17819 ft 404 kts 142°
2026-05-07 01:30 14.32516 121.46318 18485 ft 409 kts 142°
2026-05-07 01:30 14.30214 121.48081 19105 ft 414 kts 142°
2026-05-07 01:30 14.27887 121.49861 19742 ft 418 kts 142°
2026-05-07 01:31 14.25533 121.51659 20370 ft 423 kts 142°
2026-05-07 01:31 14.23152 121.53473 21015 ft 427 kts 142°
2026-05-07 01:31 14.20776 121.55283 21641 ft 431 kts 142°
2026-05-07 01:31 14.18345 121.57132 22277 ft 435 kts 142°
2026-05-07 01:32 14.15896 121.58998 22872 ft 439 kts 142°
2026-05-07 01:32 14.13418 121.60886 23422 ft 445 kts 142°
2026-05-07 01:32 14.10916 121.62790 23907 ft 450 kts 142°
2026-05-07 01:32 14.08379 121.64720 24412 ft 453 kts 142°
2026-05-07 01:33 14.05866 121.66633 24925 ft 456 kts 142°
2026-05-07 01:33 14.03302 121.68587 25414 ft 460 kts 142°
2026-05-07 01:33 14.00717 121.70556 25898 ft 464 kts 142°
2026-05-07 01:33 13.98091 121.72555 26382 ft 468 kts 143°
2026-05-07 01:34 13.95461 121.74558 26862 ft 472 kts 143°
2026-05-07 01:34 13.92805 121.76579 27335 ft 475 kts 143°
2026-05-07 01:34 13.90131 121.78613 27801 ft 479 kts 143°
2026-05-07 01:34 13.87472 121.80638 28238 ft 483 kts 142°
2026-05-07 01:35 13.84929 121.82931 28658 ft 487 kts 133°
2026-05-07 01:35 13.82688 121.85558 29088 ft 490 kts 129°
2026-05-07 01:35 13.80530 121.88300 29509 ft 494 kts 128°
2026-05-07 01:35 13.78410 121.91054 29929 ft 497 kts 128°
2026-05-07 01:36 13.76242 121.93852 30255 ft 502 kts 129°
2026-05-07 01:36 13.74034 121.96654 30550 ft 505 kts 129°
2026-05-07 01:36 13.71789 121.99457 30945 ft 506 kts 130°
2026-05-07 01:36 13.69607 122.02147 31443 ft 504 kts 130°
2026-05-07 01:37 13.67377 122.04879 31926 ft 502 kts 131°
2026-05-07 01:37 13.65118 122.07635 32369 ft 502 kts 131°
2026-05-07 01:37 13.62861 122.10388 32863 ft 500 kts 131°
2026-05-07 01:37 13.60645 122.13090 33330 ft 499 kts 131°
2026-05-07 01:38 13.58411 122.15817 33761 ft 499 kts 131°
2026-05-07 01:38 13.56173 122.18550 34122 ft 499 kts 131°
2026-05-07 01:38 13.53937 122.21281 34505 ft 498 kts 131°
2026-05-07 01:38 13.51714 122.23996 34917 ft 495 kts 131°
2026-05-07 01:39 13.49492 122.26710 35348 ft 493 kts 131°
2026-05-07 01:39 13.47310 122.29374 35739 ft 492 kts 132°
2026-05-07 01:39 13.45102 122.32068 36113 ft 491 kts 132°
2026-05-07 01:39 13.42895 122.34761 36484 ft 489 kts 132°
2026-05-07 01:40 13.40700 122.37438 36855 ft 488 kts 132°
2026-05-07 01:40 13.36316 122.42779 36926 ft 493 kts 132°
2026-05-07 01:41 13.31904 122.48153 36916 ft 487 kts 132°
2026-05-07 01:41 13.27572 122.53429 36925 ft 484 kts 132°
2026-05-07 01:42 13.23221 122.58721 36928 ft 483 kts 132°
2026-05-07 01:42 13.18881 122.63998 36927 ft 483 kts 132°
2026-05-07 01:43 13.14577 122.69227 36921 ft 482 kts 132°
2026-05-07 01:43 13.10231 122.74505 36920 ft 483 kts 132°
2026-05-07 01:44 13.05886 122.79778 36918 ft 483 kts 132°
2026-05-07 01:44 13.01567 122.85017 36932 ft 484 kts 132°
2026-05-07 01:45 12.97214 122.90294 36922 ft 485 kts 132°
2026-05-07 01:45 12.92849 122.95581 36924 ft 485 kts 132°
2026-05-07 01:46 12.88579 123.00753 36921 ft 486 kts 132°
2026-05-07 01:46 12.84194 123.06058 36920 ft 486 kts 132°
2026-05-07 01:47 12.79836 123.11329 36923 ft 486 kts 132°
2026-05-07 01:47 12.75457 123.16622 36924 ft 486 kts 132°
2026-05-07 01:48 12.71108 123.21876 36921 ft 486 kts 132°
2026-05-07 01:48 12.66740 123.27149 36919 ft 485 kts 132°
2026-05-07 01:49 12.62372 123.32420 36925 ft 485 kts 132°
2026-05-07 01:49 12.58721 123.36823 36922 ft 485 kts 132°
2026-05-07 01:50 12.54376 123.42060 36913 ft 485 kts 132°
2026-05-07 01:50 12.49998 123.47335 36912 ft 484 kts 132°
2026-05-07 01:51 12.45658 123.52562 36921 ft 484 kts 132°
2026-05-07 01:51 12.41284 123.57825 36914 ft 485 kts 132°
2026-05-07 01:52 12.36539 123.62691 36933 ft 481 kts 143°
2026-05-07 01:52 12.31020 123.66467 36909 ft 479 kts 153°
2026-05-07 01:53 12.25128 123.69679 36910 ft 479 kts 154°
2026-05-07 01:53 12.19229 123.72864 36910 ft 479 kts 154°
2026-05-07 01:54 12.13374 123.76064 36904 ft 480 kts 153°
2026-05-07 01:54 12.07474 123.79311 36900 ft 480 kts 153°
2026-05-07 01:55 12.01634 123.82529 36901 ft 480 kts 153°
2026-05-07 01:55 11.95759 123.85764 36911 ft 480 kts 153°
2026-05-07 01:56 11.89858 123.89009 36893 ft 479 kts 154°
2026-05-07 01:56 11.84004 123.92228 36889 ft 479 kts 153°
2026-05-07 01:57 11.78156 123.95441 36897 ft 479 kts 153°
2026-05-07 01:57 11.72275 123.98671 36884 ft 478 kts 153°
2026-05-07 01:58 11.66499 124.01841 36891 ft 477 kts 153°
2026-05-07 01:58 11.60699 124.05024 36877 ft 476 kts 153°
2026-05-07 01:59 11.54863 124.08224 36882 ft 474 kts 153°
2026-05-07 01:59 11.49054 124.11408 36886 ft 473 kts 153°
2026-05-07 02:00 11.43289 124.14567 36894 ft 472 kts 153°
2026-05-07 02:00 11.37503 124.17735 36884 ft 472 kts 152°
2026-05-07 02:01 11.31704 124.20909 36875 ft 472 kts 153°
2026-05-07 02:01 11.25940 124.24063 36887 ft 472 kts 153°
2026-05-07 02:02 11.20125 124.27243 36870 ft 473 kts 152°
2026-05-07 02:02 11.14334 124.30409 36869 ft 472 kts 152°
2026-05-07 02:03 11.08567 124.33561 36888 ft 472 kts 152°
2026-05-07 02:03 11.02786 124.36700 36886 ft 472 kts 152°
2026-05-07 02:04 10.96969 124.39834 36885 ft 472 kts 152°
2026-05-07 02:04 10.96030 124.40340 36886 ft 472 kts 152°